MST,Max TemperatureF,Mean TemperatureF,Min TemperatureF,Max Dew PointF,MeanDew PointF,Min DewpointF,Max Humidity, Mean Humidity, Min Humidity, Max Sea Level PressureIn, Mean Sea Level PressureIn, Min Sea Level PressureIn, Max VisibilityMiles, Mean VisibilityMiles, Min VisibilityMiles, Max Wind SpeedMPH, Mean Wind SpeedMPH, Max Gust SpeedMPH,PrecipitationIn, CloudCover, Events, WindDirDegrees
2013-11-1,57,40,22,32,27,18,79,59,27,30.10,29.99,29.76,10,10,10,23,13,30,0.00,2,,286
2013-11-2,54,35,15,30,23,13,88,66,38,30.11,29.91,29.57,10,10,10,10,3,,0.00,2,,90
2013-11-3,51,41,31,37,28,21,89,64,41,29.80,29.64,29.55,10,10,10,26,10,36,0.01,3,Rain,268
2013-11-4,35,25,14,21,14,9,80,58,38,30.22,30.02,29.81,10,10,10,26,18,38,0.00,3,,278
2013-11-5,43,25,6,20,11,1,84,69,40,30.26,30.18,30.05,10,10,9,9,4,,0.00,2,,251
2013-11-6,45,28,10,18,11,6,84,62,27,30.35,30.21,30.01,10,10,10,12,4,16,0.00,1,,262
2013-11-7,48,32,15,29,19,12,88,64,30,30.38,30.16,29.72,10,10,10,14,7,,T,2,Rain,172
2013-11-8,52,43,34,38,33,27,96,77,48,30.01,29.73,29.57,10,9,3,24,8,34,0.12,7,Rain,293
2013-11-9,40,30,20,27,22,16,85,68,50,30.31,30.20,29.98,10,10,8,15,9,24,0.00,4,,282
2013-11-10,32,24,16,25,15,10,86,76,51,30.59,30.39,30.18,10,5,1,17,7,22,T,7,Snow,46
2013-11-11,26,15,3,14,7,-2,84,74,58,30.75,30.69,30.60,10,10,10,6,3,,0.00,1,,88
2013-11-12,50,28,5,33,19,1,92,77,52,30.64,30.37,30.09,10,10,10,12,2,,0.00,0,,237
2013-11-13,51,41,31,36,32,29,88,70,45,30.11,30.03,29.95,10,10,10,16,10,23,0.01,2,,249
2013-11-14,51,36,21,33,27,18,89,75,48,29.99,29.87,29.71,10,10,10,14,7,,0.00,3,,242
2013-11-15,51,34,17,30,23,14,88,67,35,29.68,29.50,29.35,10,10,10,17,3,26,0.00,2,,249
2013-11-16,43,37,31,32,30,28,93,79,62,29.47,29.35,29.29,10,10,10,6,1,,T,8,Rain,2
2013-11-17,35,24,13,32,24,10,93,83,67,30.06,29.73,29.43,10,7,1,15,5,18,0.03,6,Rain-Snow,341
2013-11-18,50,30,10,28,19,8,88,74,44,30.05,29.96,29.81,10,10,10,8,4,,0.00,1,,54
2013-11-19,57,38,18,30,22,8,88,69,34,29.92,29.67,29.51,10,10,10,16,4,24,0.00,2,,22
2013-11-20,18,4,-11,9,3,-15,85,73,64,30.67,30.21,29.94,10,5,0,13,10,,0.04,5,Snow,342
2013-11-21,19,0,-19,6,-11,-26,87,74,57,30.76,30.62,30.51,10,9,1,15,3,,0.00,3,,248
2013-11-22,16,8,-1,11,4,-6,85,77,70,30.90,30.71,30.53,10,5,0,12,4,,T,7,Snow,69
2013-11-23,31,14,-3,16,2,-8,84,75,56,30.88,30.61,30.21,10,10,10,8,6,,0.00,1,,74
2013-11-24,35,18,1,25,15,-2,88,78,64,30.22,30.11,30.04,10,10,10,13,5,,0.00,1,,242
2013-11-25,35,25,14,22,16,11,85,75,54,30.54,30.38,30.23,10,10,10,17,8,,0.00,2,,274
2013-11-26,27,12,-4,16,7,-7,92,78,63,30.63,30.46,30.09,10,9,1,9,4,,0.00,2,,81
2013-11-27,40,26,11,25,16,9,88,77,53,30.36,30.19,30.01,10,9,7,13,6,,0.00,2,,261
2013-11-28,27,19,10,21,17,7,89,84,78,30.39,30.25,30.10,10,9,6,10,5,,0.00,5,,103
2013-11-29,40,24,7,26,17,5,92,81,60,30.15,30.09,30.03,10,9,6,10,4,,0.00,1,,243
2013-11-30,42,35,27,31,28,25,92,82,65,30.23,30.16,30.09,10,10,7,8,1,,T,7,,70